Alexandria, Egypt

4:54 AM EET on May 22, 2018 (GMT +0200)
Alexandria

Weather History for HEAX - February, 2014

Change the Weather History Date:

Monday, February 24, 2014

  Actual Average Record
Temperature  
Mean Temperature 64 °F -  
Max Temperature 69 °F 66 °F 80 °F (2011)
Min Temperature 60 °F 50 °F 41 °F (2001)
Growing Degree Days 14 (Base 50)    
Moisture  
Dew Point 55 °F    
Average Humidity 71    
Maximum Humidity 82    
Minimum Humidity 59    
Precipitation  
Precipitation 0.00 in 0.02 in - ()
Sea Level Pressure  
Sea Level Pressure 30.00 in    
Wind  
Wind Speed 7 mph ()    
Max Wind Speed 14 mph    
Max Gust Speed -    
Visibility 6.1 miles    
Events      
Averages and records for this station are not official NWS values.
T = Trace of Precipitation, MM = Missing Value Source: Averaged Metar Reports

Daily Weather History Graph

Daily Weather History Graph

Search for Another Location

Airport or City:

Astronomy

Feb. 24, 2014 Rise Set
Actual Time 6:32 AM EET 5:54 PM EET
Civil Twilight 6:08 AM EET 6:19 PM EET
Nautical Twilight 5:40 AM EET 6:47 PM EET
Astronomical Twilight 5:12 AM EET 7:15 PM EET
Moon 2:00 AM EET (2/24) 12:47 PM EET (2/24)
Length of Visible Light 12h 10m
Length of Day
11h 21m
Waning Crescent, 31% of the Moon is Illuminated
Feb 24
Waning Crescent
Mar 1
New
Mar 8
First Quarter
Mar 16
Full
Mar 24
Last Quarter

Hourly Weather History & Observations

Time (EET) Temp. Dew Point Humidity Pressure Visibility Wind Dir Wind Speed Gust Speed Precip Events Conditions
12:00 AM 62.6 °F 55.4 °F 77% 30.01 in 6.2 mi NNW 5.8 mph - N/A   Scattered Clouds
1:00 AM 62.6 °F 57.2 °F 82% 29.98 in 6.2 mi NNW 5.8 mph - N/A   Scattered Clouds
2:00 AM 62 °F 56 °F 75% 29.99 in 6 mi NNW 4.6 mph - -   Partly Cloudy
2:00 AM 62.6 °F 55.4 °F 77% 29.98 in 6.2 mi NNW 4.6 mph - N/A   Scattered Clouds
3:00 AM 62.6 °F 57.2 °F 82% 29.98 in 6.2 mi NNW 4.6 mph - N/A   Scattered Clouds
4:00 AM 62.6 °F 55.4 °F 77% 29.98 in 6.2 mi NNW 5.8 mph - N/A   Scattered Clouds
5:00 AM 62 °F 56 °F 75% 29.98 in 6 mi NW 5.8 mph - -   Partly Cloudy
5:00 AM 62.6 °F 55.4 °F 77% 29.98 in 6.2 mi NW 6.9 mph - N/A   Scattered Clouds
6:00 AM 62.6 °F 55.4 °F 77% 29.98 in 6.2 mi NW 8.1 mph - N/A   Scattered Clouds
7:00 AM 60.8 °F 55.4 °F 82% 29.98 in 6.2 mi NW 5.8 mph - N/A   Scattered Clouds
8:00 AM 63 °F 55 °F 69% 30.01 in 6 mi NW 6.9 mph - -  
8:00 AM 62.6 °F 55.4 °F 77% 30.01 in - NW 6.9 mph - N/A   Clear
9:00 AM 64.4 °F 55.4 °F 73% 30.01 in - WNW 5.8 mph - N/A   Clear
10:00 AM 66.2 °F 55.4 °F 68% 30.01 in 6.2 mi WNW 6.9 mph - N/A   Scattered Clouds
11:00 AM 65 °F 55 °F 62% 30.03 in 6 mi NW 9.2 mph - -   Partly Cloudy
11:00 AM 64.4 °F 55.4 °F 73% 30.01 in 6.2 mi NW 9.2 mph - N/A   Scattered Clouds
12:00 PM 66.2 °F 53.6 °F 64% 30.01 in 6.2 mi West 9.2 mph - N/A   Scattered Clouds
1:00 PM 66.2 °F 53.6 °F 64% 29.98 in 6.2 mi WNW 10.4 mph - N/A   Unknown
2:00 PM 65 °F 54 °F 59% 29.98 in 6 mi NW 10.4 mph - -   Partly Cloudy
2:00 PM 66.2 °F 53.6 °F 64% 29.98 in 6.2 mi NW 10.4 mph - N/A   Scattered Clouds
3:00 PM 68.0 °F 55.4 °F 64% 29.98 in 6.2 mi WNW 10.4 mph - N/A   Scattered Clouds
4:00 PM 68.0 °F 55.4 °F 64% 29.98 in 6.2 mi WNW 10.4 mph - N/A   Scattered Clouds
5:00 PM 65 °F 56 °F 65% 29.99 in 6 mi WNW 11.5 mph - -   Partly Cloudy
5:00 PM 64.4 °F 55.4 °F 73% 29.98 in 6.2 mi NW 11.5 mph - N/A   Scattered Clouds
6:00 PM 62.6 °F 55.4 °F 77% 29.98 in 6.2 mi WNW 12.7 mph - N/A   Partly Cloudy
7:00 PM 62.6 °F 55.4 °F 77% 30.01 in 6.2 mi NW 10.4 mph - N/A   Partly Cloudy
8:00 PM 62 °F 52 °F 62% 30.02 in 6 mi WNW 13.8 mph - -   Scattered Clouds
8:00 PM 62.6 °F 51.8 °F 68% 30.01 in 6.2 mi WNW 13.8 mph - N/A   Partly Cloudy
9:00 PM 60.8 °F 53.6 °F 77% 30.01 in 6.2 mi WNW 6.9 mph - N/A   Scattered Clouds
10:00 PM 60.8 °F 53.6 °F 77% 30.01 in 6.2 mi WNW 5.8 mph - N/A   Partly Cloudy
11:00 PM 61 °F 51 °F 60% 30.01 in 6 mi WNW 8.1 mph - -  
11:00 PM 60.8 °F 50.0 °F 68% 30.01 in - WNW 8.1 mph - N/A   Clear